Location: Sawmill Trailhead
(33.5800°N, 116.4497°W)
Time: 20:17:37
(UTC-07:00)

Uosat F - Visible Passes

Search period start: 28 September 2016 00:00
Search period end: 08 October 2016 00:00
Orbit: 750 x 761 km, 98.8° (Epoch: 27 September)

Date Brightness Start Highest point End Pass type
(mag) Time Alt. Az. Time Alt. Az. Time Alt. Az.
28 Sep 14.3 19:31:01 10° SW 19:33:39 14° W 19:36:17 10° WNW visible
29 Sep 14.0 06:02:10 10° NE 06:06:02 22° E 06:09:53 10° SE visible
29 Sep 12.9 18:49:21 10° SSW 18:53:58 37° W 18:58:36 10° NNW visible
01 Oct 13.8 19:10:00 10° SSW 19:13:56 23° W 19:17:55 10° NW visible
02 Oct 14.5 05:43:57 10° ENE 05:46:20 13° E 05:48:42 10° ESE visible
03 Oct 14.3 19:31:18 10° SW 19:33:58 14° W 19:36:40 10° WNW visible
04 Oct 14.0 06:02:32 10° NE 06:06:22 22° E 06:10:12 10° SE visible
04 Oct 12.8 18:49:40 10° SSW 18:54:16 38° W 18:58:56 10° NNW visible
06 Oct 13.7 19:10:17 10° SSW 19:14:16 24° W 19:18:16 10° NW visible
07 Oct 14.5 05:44:20 10° ENE 05:46:39 13° E 05:48:58 10° ESE visible
